Location: Fornova de Taro
(44.7000°N, 10.1000°E)
Time: 23:24:41
(UTC+00:00)

Cosmos 839 Rocket - Pass Details

Date: 26 May 2022
Orbit: 968 x 2085 km, 65.9° (Epoch: 02 July)

Event Time Altitude Azimuth Distance (km) Brightness Sun altitude
Rises 00:36:15 0° 323° (NW) 3,700 7.5 -21.7°
Reaches altitude 10° 00:38:42 10° 321° (NW) 2,795 6.8 -21.6°
Maximum altitude 00:45:02 63° 242° (WSW) 1,234 4.3 -21.2°
Enters shadow 00:49:13 27° 170° (S) 2,137 5.3 -20.9°
